Year,Month,Day,Hour,Minute,Value (Times are PST for temperature in C)
2007,09,23,00,00,8.90
2007,09,23,00,01,8.90
2007,09,23,00,02,8.90
2007,09,23,00,03,8.90
2007,09,23,00,04,8.90
2007,09,23,00,05,8.90
2007,09,23,00,06,8.90
2007,09,23,00,07,9.00
2007,09,23,00,08,9.00
2007,09,23,00,09,9.00
2007,09,23,00,10,9.00
2007,09,23,00,11,9.00
2007,09,23,00,12,9.00
2007,09,23,00,13,9.00
2007,09,23,00,14,9.00
2007,09,23,00,15,9.10
2007,09,23,00,16,9.10
2007,09,23,00,17,9.10
2007,09,23,00,18,9.10
2007,09,23,00,19,9.10
2007,09,23,00,20,9.10
2007,09,23,00,21,9.10
2007,09,23,00,22,9.10
2007,09,23,00,23,9.10
2007,09,23,00,24,9.10
2007,09,23,00,25,9.10
2007,09,23,00,26,9.10
2007,09,23,00,27,9.10
2007,09,23,00,28,9.10
2007,09,23,00,29,9.00
2007,09,23,00,30,9.00
2007,09,23,00,31,9.00
2007,09,23,00,32,9.00
2007,09,23,00,33,9.00
2007,09,23,00,34,8.90
2007,09,23,00,35,8.90
2007,09,23,00,36,8.90
2007,09,23,00,37,8.90
2007,09,23,00,38,8.90
2007,09,23,00,39,8.90
2007,09,23,00,40,9.00
2007,09,23,00,41,9.00
2007,09,23,00,42,9.00
2007,09,23,00,43,9.00
2007,09,23,00,44,9.00
2007,09,23,00,45,9.00
2007,09,23,00,46,9.00
2007,09,23,00,47,9.10
2007,09,23,00,48,9.10
2007,09,23,00,49,9.10
2007,09,23,00,50,9.10
2007,09,23,00,51,9.10
2007,09,23,00,52,9.10
2007,09,23,00,53,9.20
2007,09,23,00,54,9.20
2007,09,23,00,55,9.20
2007,09,23,00,56,9.20
2007,09,23,00,57,9.20
2007,09,23,00,58,9.20
2007,09,23,00,59,9.20
2007,09,23,01,00,9.20
2007,09,23,01,01,9.20
2007,09,23,01,02,9.30
2007,09,23,01,03,9.30
2007,09,23,01,04,9.30
2007,09,23,01,05,9.30
2007,09,23,01,06,9.30
2007,09,23,01,07,9.30
2007,09,23,01,08,9.40
2007,09,23,01,09,9.40
2007,09,23,01,10,9.40
2007,09,23,01,11,9.40
2007,09,23,01,12,9.40
2007,09,23,01,13,9.40
2007,09,23,01,14,9.40
2007,09,23,01,15,9.40
2007,09,23,01,16,9.40
2007,09,23,01,17,9.40
2007,09,23,01,18,9.40
2007,09,23,01,19,9.40
2007,09,23,01,20,9.40
2007,09,23,01,21,9.40
2007,09,23,01,22,9.40
2007,09,23,01,23,9.40
2007,09,23,01,24,9.40
2007,09,23,01,25,9.40
2007,09,23,01,26,9.40
2007,09,23,01,27,9.40
2007,09,23,01,28,9.40
2007,09,23,01,29,9.40
2007,09,23,01,30,9.40
2007,09,23,01,31,9.50
2007,09,23,01,32,9.50
2007,09,23,01,33,9.40
2007,09,23,01,34,9.40
2007,09,23,01,35,9.40
2007,09,23,01,36,9.50
2007,09,23,01,37,9.50
2007,09,23,01,38,9.50
2007,09,23,01,39,9.50
2007,09,23,01,40,9.50
2007,09,23,01,41,9.50
2007,09,23,01,42,9.50
2007,09,23,01,43,9.50
2007,09,23,01,44,9.50
2007,09,23,01,45,9.50
2007,09,23,01,46,9.50
2007,09,23,01,47,9.50
2007,09,23,01,48,9.40
2007,09,23,01,49,9.40
2007,09,23,01,50,9.40
2007,09,23,01,51,9.40
2007,09,23,01,52,9.40
2007,09,23,01,53,9.40
2007,09,23,01,54,9.40
2007,09,23,01,55,9.40
2007,09,23,01,56,9.40
2007,09,23,01,57,9.40
2007,09,23,01,58,9.40
2007,09,23,01,59,9.40
2007,09,23,02,00,9.40
2007,09,23,02,01,9.40
2007,09,23,02,02,9.40
2007,09,23,02,03,9.40
2007,09,23,02,04,9.30
2007,09,23,02,05,9.30
2007,09,23,02,06,9.30
2007,09,23,02,07,9.30
2007,09,23,02,08,9.30
2007,09,23,02,09,9.30
2007,09,23,02,10,9.30
2007,09,23,02,11,9.30
2007,09,23,02,12,9.30
2007,09,23,02,13,9.30
2007,09,23,02,14,9.20
2007,09,23,02,15,9.20
2007,09,23,02,16,9.20
2007,09,23,02,17,9.20
2007,09,23,02,18,9.20
2007,09,23,02,19,9.20
2007,09,23,02,20,9.20
2007,09,23,02,21,9.20
2007,09,23,02,22,9.20
2007,09,23,02,23,9.20
2007,09,23,02,24,9.20
2007,09,23,02,25,9.20
2007,09,23,02,26,9.20
2007,09,23,02,27,9.20
2007,09,23,02,28,9.20
2007,09,23,02,29,9.20
2007,09,23,02,30,9.20
2007,09,23,02,31,9.20
2007,09,23,02,32,9.20
2007,09,23,02,33,9.20
2007,09,23,02,34,9.20
2007,09,23,02,35,9.20
2007,09,23,02,36,9.10
2007,09,23,02,37,9.10
2007,09,23,02,38,9.10
2007,09,23,02,39,9.10
2007,09,23,02,40,9.10
2007,09,23,02,41,9.10
2007,09,23,02,42,9.00
2007,09,23,02,43,9.00
2007,09,23,02,44,9.00
2007,09,23,02,45,9.00
2007,09,23,02,46,9.00
2007,09,23,02,47,8.90
2007,09,23,02,48,8.90
2007,09,23,02,49,8.90
2007,09,23,02,50,8.90
2007,09,23,02,51,8.80
2007,09,23,02,52,8.80
2007,09,23,02,53,8.80
2007,09,23,02,54,8.80
2007,09,23,02,55,8.80
2007,09,23,02,56,8.80
2007,09,23,02,57,8.80
2007,09,23,02,58,8.70
2007,09,23,02,59,8.70
2007,09,23,03,00,8.70
2007,09,23,03,01,8.70
2007,09,23,03,02,8.70
2007,09,23,03,03,8.70
2007,09,23,03,04,8.70
2007,09,23,03,05,8.70
2007,09,23,03,06,8.70
2007,09,23,03,07,8.70
2007,09,23,03,08,8.70
2007,09,23,03,09,8.70
2007,09,23,03,10,8.70
2007,09,23,03,11,8.70
2007,09,23,03,12,8.70
2007,09,23,03,13,8.70
2007,09,23,03,14,8.70
2007,09,23,03,15,8.70
2007,09,23,03,16,8.60
2007,09,23,03,17,8.60
2007,09,23,03,18,8.60
2007,09,23,03,19,8.60
2007,09,23,03,20,8.60
2007,09,23,03,21,8.60
2007,09,23,03,22,8.50
2007,09,23,03,23,8.50
2007,09,23,03,24,8.50
2007,09,23,03,25,8.50
2007,09,23,03,26,8.40
2007,09,23,03,27,8.40
2007,09,23,03,28,8.40
2007,09,23,03,29,8.40
2007,09,23,03,30,8.40
2007,09,23,03,31,8.30
2007,09,23,03,32,8.30
2007,09,23,03,33,8.30
2007,09,23,03,34,8.30
2007,09,23,03,35,8.30
2007,09,23,03,36,8.30
2007,09,23,03,37,8.30
2007,09,23,03,38,8.30
2007,09,23,03,39,8.30
2007,09,23,03,40,8.30
2007,09,23,03,41,8.20
2007,09,23,03,42,8.20
2007,09,23,03,43,8.20
2007,09,23,03,44,8.20
2007,09,23,03,45,8.20
2007,09,23,03,46,8.10
2007,09,23,03,47,8.10
2007,09,23,03,48,8.10
2007,09,23,03,49,8.10
2007,09,23,03,50,8.10
2007,09,23,03,51,8.10
2007,09,23,03,52,8.10
2007,09,23,03,53,8.10
2007,09,23,03,54,8.00
2007,09,23,03,55,8.00
2007,09,23,03,56,8.00
2007,09,23,03,57,8.00
2007,09,23,03,58,8.00
2007,09,23,03,59,7.90
2007,09,23,04,00,7.90
2007,09,23,04,01,7.90
2007,09,23,04,02,7.90
2007,09,23,04,03,7.90
2007,09,23,04,04,7.90
2007,09,23,04,05,7.80
2007,09,23,04,06,7.80
2007,09,23,04,07,7.80
2007,09,23,04,08,7.80
2007,09,23,04,09,7.80
2007,09,23,04,10,7.80
2007,09,23,04,11,7.80
2007,09,23,04,12,7.80
2007,09,23,04,13,7.70
2007,09,23,04,14,7.70
2007,09,23,04,15,7.70
2007,09,23,04,16,7.70
2007,09,23,04,17,7.70
2007,09,23,04,18,7.70
2007,09,23,04,19,7.70
2007,09,23,04,20,7.60
2007,09,23,04,21,7.60
2007,09,23,04,22,7.60
2007,09,23,04,23,7.60
2007,09,23,04,24,7.60
2007,09,23,04,25,7.60
2007,09,23,04,26,7.60
2007,09,23,04,27,7.60
2007,09,23,04,28,7.60
2007,09,23,04,29,7.60
2007,09,23,04,30,7.50
2007,09,23,04,31,7.50
2007,09,23,04,32,7.50
2007,09,23,04,33,7.50
2007,09,23,04,34,7.50
2007,09,23,04,35,7.40
2007,09,23,04,36,7.40
2007,09,23,04,37,7.40
2007,09,23,04,38,7.40
2007,09,23,04,39,7.40
2007,09,23,04,40,7.40
2007,09,23,04,41,7.40
2007,09,23,04,42,7.40
2007,09,23,04,43,7.40
2007,09,23,04,44,7.40
2007,09,23,04,45,7.40
2007,09,23,04,46,7.30
2007,09,23,04,47,7.30
2007,09,23,04,48,7.30
2007,09,23,04,49,7.30
2007,09,23,04,50,7.20
2007,09,23,04,51,7.20
2007,09,23,04,52,7.20
2007,09,23,04,53,7.20
2007,09,23,04,54,7.20
2007,09,23,04,55,7.20
2007,09,23,04,56,7.20
2007,09,23,04,57,7.20
2007,09,23,04,58,7.10
2007,09,23,04,59,7.10
2007,09,23,05,00,7.10
2007,09,23,05,01,7.10
2007,09,23,05,02,7.10
2007,09,23,05,03,7.10
2007,09,23,05,04,7.10
2007,09,23,05,05,7.00
2007,09,23,05,06,7.00
2007,09,23,05,07,7.00
2007,09,23,05,08,7.00
2007,09,23,05,09,6.90
2007,09,23,05,10,6.90
2007,09,23,05,11,6.90
2007,09,23,05,12,6.90
2007,09,23,05,13,6.90
2007,09,23,05,14,6.90
2007,09,23,05,15,6.90
2007,09,23,05,16,6.90
2007,09,23,05,17,6.90
2007,09,23,05,18,6.90
2007,09,23,05,19,6.90
2007,09,23,05,20,6.90
2007,09,23,05,21,6.90
2007,09,23,05,22,6.90
2007,09,23,05,23,6.80
2007,09,23,05,24,6.80
2007,09,23,05,25,6.80
2007,09,23,05,26,6.80
2007,09,23,05,27,6.80
2007,09,23,05,28,6.80
2007,09,23,05,29,6.80
2007,09,23,05,30,6.80
2007,09,23,05,31,6.80
2007,09,23,05,32,6.80
2007,09,23,05,33,6.80
2007,09,23,05,34,6.80
2007,09,23,05,35,6.80
2007,09,23,05,36,6.80
2007,09,23,05,37,6.80
2007,09,23,05,38,6.70
2007,09,23,05,39,6.70
2007,09,23,05,40,6.70
2007,09,23,05,41,6.70
2007,09,23,05,42,6.70
2007,09,23,05,43,6.70
2007,09,23,05,44,6.70
2007,09,23,05,45,6.80
2007,09,23,05,46,6.80
2007,09,23,05,47,6.80
2007,09,23,05,48,6.80
2007,09,23,05,49,6.90
2007,09,23,05,50,6.90
2007,09,23,05,51,6.90
2007,09,23,05,52,6.80
2007,09,23,05,53,6.80
2007,09,23,05,54,6.80
2007,09,23,05,55,6.80
2007,09,23,05,56,6.80
2007,09,23,05,57,6.80
2007,09,23,05,58,6.80
2007,09,23,05,59,6.80
2007,09,23,06,00,6.80
2007,09,23,06,01,6.80
2007,09,23,06,02,6.80
2007,09,23,06,03,6.70
2007,09,23,06,04,6.70
2007,09,23,06,05,6.70
2007,09,23,06,06,6.70
2007,09,23,06,07,6.70
2007,09,23,06,08,6.70
2007,09,23,06,09,6.70
2007,09,23,06,10,6.70
2007,09,23,06,11,6.70
2007,09,23,06,12,6.70
2007,09,23,06,13,6.70
2007,09,23,06,14,6.60
2007,09,23,06,15,6.60
2007,09,23,06,16,6.60
2007,09,23,06,17,6.60
2007,09,23,06,18,6.60
2007,09,23,06,19,6.60
2007,09,23,06,20,6.50
2007,09,23,06,21,6.50
2007,09,23,06,22,6.50
2007,09,23,06,23,6.40
2007,09,23,06,24,6.40
2007,09,23,06,25,6.40
2007,09,23,06,26,6.40
2007,09,23,06,27,6.40
2007,09,23,06,28,6.30
2007,09,23,06,29,6.30
2007,09,23,06,30,6.30
2007,09,23,06,31,6.30
2007,09,23,06,32,6.30
2007,09,23,06,33,6.30
2007,09,23,06,34,6.30
2007,09,23,06,35,6.30
2007,09,23,06,36,6.30
2007,09,23,06,37,6.30
2007,09,23,06,38,6.30
2007,09,23,06,39,6.30
2007,09,23,06,40,6.30
2007,09,23,06,41,6.30
2007,09,23,06,42,6.30
2007,09,23,06,43,6.30
2007,09,23,06,44,6.30
2007,09,23,06,45,6.30
2007,09,23,06,46,6.30
2007,09,23,06,47,6.30
2007,09,23,06,48,6.30
2007,09,23,06,49,6.30
2007,09,23,06,50,6.30
2007,09,23,06,51,6.30
2007,09,23,06,52,6.30
2007,09,23,06,53,6.30
2007,09,23,06,54,6.30
2007,09,23,06,55,6.30
2007,09,23,06,56,6.30
2007,09,23,06,57,6.30
2007,09,23,06,58,6.20
2007,09,23,06,59,6.20
2007,09,23,07,00,6.20
2007,09,23,07,01,6.20
2007,09,23,07,02,6.20
2007,09,23,07,03,6.20
2007,09,23,07,04,6.20
2007,09,23,07,05,6.20
2007,09,23,07,06,6.30
2007,09,23,07,07,6.30
2007,09,23,07,08,6.30
2007,09,23,07,09,6.30
2007,09,23,07,10,6.30
2007,09,23,07,11,6.30
2007,09,23,07,12,6.30
2007,09,23,07,13,6.30
2007,09,23,07,14,6.30
2007,09,23,07,15,6.30
2007,09,23,07,16,6.40
2007,09,23,07,17,6.40
2007,09,23,07,18,6.40
2007,09,23,07,19,6.40
2007,09,23,07,20,6.40
2007,09,23,07,21,6.40
2007,09,23,07,22,6.40
2007,09,23,07,23,6.40
2007,09,23,07,24,6.40
2007,09,23,07,25,6.50
2007,09,23,07,26,6.50
2007,09,23,07,27,6.50
2007,09,23,07,28,6.40
2007,09,23,07,29,6.40
2007,09,23,07,30,6.40
2007,09,23,07,31,6.40
2007,09,23,07,32,6.40
2007,09,23,07,33,6.40
2007,09,23,07,34,6.40
2007,09,23,07,35,6.40
2007,09,23,07,36,6.40
2007,09,23,07,37,6.40
2007,09,23,07,38,6.40
2007,09,23,07,39,6.40
2007,09,23,07,40,6.40
2007,09,23,07,41,6.40
2007,09,23,07,42,6.40
2007,09,23,07,43,6.40
2007,09,23,07,44,6.40
2007,09,23,07,45,6.40
2007,09,23,07,46,6.40
2007,09,23,07,47,6.40
2007,09,23,07,48,6.40
2007,09,23,07,49,6.50
2007,09,23,07,50,6.50
2007,09,23,07,51,6.60
2007,09,23,07,52,6.60
2007,09,23,07,53,6.60
2007,09,23,07,54,6.60
2007,09,23,07,55,6.60
2007,09,23,07,56,6.60
2007,09,23,07,57,6.70
2007,09,23,07,58,6.70
2007,09,23,07,59,6.70
2007,09,23,08,00,6.70
2007,09,23,08,01,6.70
2007,09,23,08,02,6.70
2007,09,23,08,03,6.70
2007,09,23,08,04,6.70
2007,09,23,08,05,6.70
2007,09,23,08,06,6.70
2007,09,23,08,07,6.60
2007,09,23,08,08,6.60
2007,09,23,08,09,6.60
2007,09,23,08,10,6.60
2007,09,23,08,11,6.60
2007,09,23,08,12,6.60
2007,09,23,08,13,6.60
2007,09,23,08,14,6.60
2007,09,23,08,15,6.70
2007,09,23,08,16,6.70
2007,09,23,08,17,6.70
2007,09,23,08,18,6.80
2007,09,23,08,19,6.80
2007,09,23,08,20,6.90
2007,09,23,08,21,6.90
2007,09,23,08,22,6.90
2007,09,23,08,23,7.00
2007,09,23,08,24,7.10
2007,09,23,08,25,7.20
2007,09,23,08,26,7.20
2007,09,23,08,27,7.20
2007,09,23,08,28,7.30
2007,09,23,08,29,7.30
2007,09,23,08,30,7.40
2007,09,23,08,31,7.40
2007,09,23,08,32,7.50
2007,09,23,08,33,7.60
2007,09,23,08,34,7.60
2007,09,23,08,35,7.60
2007,09,23,08,36,7.70
2007,09,23,08,37,7.70
2007,09,23,08,38,7.70
2007,09,23,08,39,7.80
2007,09,23,08,40,7.80
2007,09,23,08,41,7.80
2007,09,23,08,42,7.90
2007,09,23,08,43,7.90
2007,09,23,08,44,7.90
2007,09,23,08,45,8.00
2007,09,23,08,46,8.00
2007,09,23,08,47,8.10
2007,09,23,08,48,8.10
2007,09,23,08,49,8.10
2007,09,23,08,50,8.10
2007,09,23,08,51,8.20
2007,09,23,08,52,8.20
2007,09,23,08,53,8.20
2007,09,23,08,54,8.20
2007,09,23,08,55,8.30
2007,09,23,08,56,8.40
2007,09,23,08,57,8.50
2007,09,23,08,58,8.60
2007,09,23,08,59,8.60
2007,09,23,09,00,8.70
2007,09,23,09,01,8.80
2007,09,23,09,02,8.80
2007,09,23,09,03,8.90
2007,09,23,09,04,8.90
2007,09,23,09,05,9.00
2007,09,23,09,06,9.00
2007,09,23,09,07,9.10
2007,09,23,09,08,9.10
2007,09,23,09,09,9.10
2007,09,23,09,10,9.20
2007,09,23,09,11,9.30
2007,09,23,09,12,9.30
2007,09,23,09,13,9.50
2007,09,23,09,14,9.60
2007,09,23,09,15,9.80
2007,09,23,09,16,9.90
2007,09,23,09,17,10.00
2007,09,23,09,18,10.10
2007,09,23,09,19,10.20
2007,09,23,09,20,10.40
2007,09,23,09,21,10.40
2007,09,23,09,22,10.50
2007,09,23,09,23,10.60
2007,09,23,09,24,10.70
2007,09,23,09,25,10.80
2007,09,23,09,26,10.90
2007,09,23,09,27,11.00
2007,09,23,09,28,11.10
2007,09,23,09,29,11.10
2007,09,23,09,30,11.20
2007,09,23,09,31,11.30
2007,09,23,09,32,11.40
2007,09,23,09,33,11.50
2007,09,23,09,34,11.60
2007,09,23,09,35,11.80
2007,09,23,09,36,11.90
2007,09,23,09,37,12.00
2007,09,23,09,38,12.20
2007,09,23,09,39,12.30
2007,09,23,09,40,12.40
2007,09,23,09,41,12.50
2007,09,23,09,42,12.50
2007,09,23,09,43,12.50
2007,09,23,09,44,12.60
2007,09,23,09,45,12.60
2007,09,23,09,46,12.70
2007,09,23,09,47,12.80
2007,09,23,09,48,12.80
2007,09,23,09,49,12.80
2007,09,23,09,50,12.90
2007,09,23,09,51,12.90
2007,09,23,09,52,12.90
2007,09,23,09,53,13.00
2007,09,23,09,54,13.00
2007,09,23,09,55,13.00
2007,09,23,09,56,13.00
2007,09,23,09,57,13.10
2007,09,23,09,58,13.10
2007,09,23,09,59,13.10
2007,09,23,10,00,13.20
2007,09,23,10,01,13.30
2007,09,23,10,02,13.30
2007,09,23,10,03,13.40
2007,09,23,10,04,13.50
2007,09,23,10,05,13.60
2007,09,23,10,06,13.60
2007,09,23,10,07,13.70
2007,09,23,10,08,13.80
2007,09,23,10,09,13.80
2007,09,23,10,10,13.90
2007,09,23,10,11,14.00
2007,09,23,10,12,14.10
2007,09,23,10,13,14.10
2007,09,23,10,14,14.20
2007,09,23,10,15,14.20
2007,09,23,10,16,14.30
2007,09,23,10,17,14.30
2007,09,23,10,18,14.40
2007,09,23,10,19,14.40
2007,09,23,10,20,14.40
2007,09,23,10,21,14.50
2007,09,23,10,22,14.60
2007,09,23,10,23,14.60
2007,09,23,10,24,14.70
2007,09,23,10,25,14.70
2007,09,23,10,26,14.70
2007,09,23,10,27,14.60
2007,09,23,10,28,14.60
2007,09,23,10,29,14.50
2007,09,23,10,30,14.50
2007,09,23,10,31,14.50
2007,09,23,10,32,14.60
2007,09,23,10,33,14.60
2007,09,23,10,34,14.60
2007,09,23,10,35,14.70
2007,09,23,10,36,14.60
2007,09,23,10,37,14.60
2007,09,23,10,38,14.60
2007,09,23,10,39,14.70
2007,09,23,10,40,14.60
2007,09,23,10,41,14.60
2007,09,23,10,42,14.70
2007,09,23,10,43,14.70
2007,09,23,10,44,14.70
2007,09,23,10,45,14.60
2007,09,23,10,46,14.70
2007,09,23,10,47,14.70
2007,09,23,10,48,14.70
2007,09,23,10,49,14.80
2007,09,23,10,50,14.80
2007,09,23,10,51,14.90
2007,09,23,10,52,15.00
2007,09,23,10,53,15.00
2007,09,23,10,54,15.00
2007,09,23,10,55,15.00
2007,09,23,10,56,15.00
2007,09,23,10,57,15.10
2007,09,23,10,58,15.20
2007,09,23,10,59,15.30
2007,09,23,11,00,15.30
2007,09,23,11,01,15.30
2007,09,23,11,02,15.30
2007,09,23,11,03,15.40
2007,09,23,11,04,15.40
2007,09,23,11,05,15.40
2007,09,23,11,06,15.40
2007,09,23,11,07,15.40
2007,09,23,11,08,15.30
2007,09,23,11,09,15.30
2007,09,23,11,10,15.30
2007,09,23,11,11,15.40
2007,09,23,11,12,15.50
2007,09,23,11,13,15.60
2007,09,23,11,14,15.70
2007,09,23,11,15,15.80
2007,09,23,11,16,15.90
2007,09,23,11,17,15.90
2007,09,23,11,18,16.00
2007,09,23,11,19,16.00
2007,09,23,11,20,15.90
2007,09,23,11,21,15.90
2007,09,23,11,22,15.90
2007,09,23,11,23,15.90
2007,09,23,11,24,16.00
2007,09,23,11,25,16.10
2007,09,23,11,26,16.10
2007,09,23,11,27,16.10
2007,09,23,11,28,16.10
2007,09,23,11,29,16.20
2007,09,23,11,30,16.20
2007,09,23,11,31,16.30
2007,09,23,11,32,16.30
2007,09,23,11,33,16.30
2007,09,23,11,34,16.20
2007,09,23,11,35,16.10
2007,09,23,11,36,16.20
2007,09,23,11,37,16.20
2007,09,23,11,38,16.20
2007,09,23,11,39,16.30
2007,09,23,11,40,16.30
2007,09,23,11,41,16.30
2007,09,23,11,42,16.30
2007,09,23,11,43,16.30
2007,09,23,11,44,16.30
2007,09,23,11,45,16.40
2007,09,23,11,46,16.40
2007,09,23,11,47,16.50
2007,09,23,11,48,16.60
2007,09,23,11,49,16.60
2007,09,23,11,50,16.70
2007,09,23,11,51,16.80
2007,09,23,11,52,16.80
2007,09,23,11,53,16.80
2007,09,23,11,54,16.80
2007,09,23,11,55,16.80
2007,09,23,11,56,16.80
2007,09,23,11,57,16.70
2007,09,23,11,58,16.60
2007,09,23,11,59,16.40
2007,09,23,12,00,16.20
2007,09,23,12,01,16.10
2007,09,23,12,02,15.90
2007,09,23,12,03,15.80
2007,09,23,12,04,15.80
2007,09,23,12,05,15.80
2007,09,23,12,06,15.70
2007,09,23,12,07,15.70
2007,09,23,12,08,15.70
2007,09,23,12,09,15.70
2007,09,23,12,10,15.70
2007,09,23,12,11,15.70
2007,09,23,12,12,15.80
2007,09,23,12,13,15.90
2007,09,23,12,14,16.00
2007,09,23,12,15,16.00
2007,09,23,12,16,16.10
2007,09,23,12,17,16.10
2007,09,23,12,18,16.10
2007,09,23,12,19,16.10
2007,09,23,12,20,16.00
2007,09,23,12,21,16.00
2007,09,23,12,22,16.00
2007,09,23,12,23,16.00
2007,09,23,12,24,16.00
2007,09,23,12,25,16.00
2007,09,23,12,26,16.00
2007,09,23,12,27,16.10
2007,09,23,12,28,16.20
2007,09,23,12,29,16.20
2007,09,23,12,30,16.30
2007,09,23,12,31,16.30
2007,09,23,12,32,16.30
2007,09,23,12,33,16.30
2007,09,23,12,34,16.20
2007,09,23,12,35,16.20
2007,09,23,12,36,16.20
2007,09,23,12,37,16.10
2007,09,23,12,38,16.10
2007,09,23,12,39,16.10
2007,09,23,12,40,16.10
2007,09,23,12,41,16.10
2007,09,23,12,42,16.10
2007,09,23,12,43,16.00
2007,09,23,12,44,16.00
2007,09,23,12,45,15.90
2007,09,23,12,46,15.90
2007,09,23,12,47,15.90
2007,09,23,12,48,15.90
2007,09,23,12,49,15.90
2007,09,23,12,50,15.90
2007,09,23,12,51,15.90
2007,09,23,12,52,15.80
2007,09,23,12,53,15.80
2007,09,23,12,54,15.70
2007,09,23,12,55,15.70
2007,09,23,12,56,15.60
2007,09,23,12,57,15.60
2007,09,23,12,58,15.60
2007,09,23,12,59,15.50
2007,09,23,13,00,15.40
2007,09,23,13,01,15.20
2007,09,23,13,02,15.00
2007,09,23,13,03,15.00
2007,09,23,13,04,15.10
2007,09,23,13,05,15.10
2007,09,23,13,06,15.10
2007,09,23,13,07,15.00
2007,09,23,13,08,15.10
2007,09,23,13,09,15.00
2007,09,23,13,10,15.00
2007,09,23,13,11,15.00
2007,09,23,13,12,15.00
2007,09,23,13,13,15.00
2007,09,23,13,14,15.00
2007,09,23,13,15,15.00
2007,09,23,13,16,15.00
2007,09,23,13,17,15.00
2007,09,23,13,18,15.00
2007,09,23,13,19,15.00
2007,09,23,13,20,15.00
2007,09,23,13,21,15.00
2007,09,23,13,22,15.00
2007,09,23,13,23,15.00
2007,09,23,13,24,15.00
2007,09,23,13,25,15.00
2007,09,23,13,26,15.00
2007,09,23,13,27,15.00
2007,09,23,13,28,15.00
2007,09,23,13,29,15.00
2007,09,23,13,30,15.00
2007,09,23,13,31,15.00
2007,09,23,13,32,15.10
2007,09,23,13,33,15.20
2007,09,23,13,34,15.30
2007,09,23,13,35,15.20
2007,09,23,13,36,15.30
2007,09,23,13,37,15.30
2007,09,23,13,38,15.20
2007,09,23,13,39,15.20
2007,09,23,13,40,15.20
2007,09,23,13,41,15.20
2007,09,23,13,42,15.20
2007,09,23,13,43,15.20
2007,09,23,13,44,15.20
2007,09,23,13,45,15.20
2007,09,23,13,46,15.20
2007,09,23,13,47,15.10
2007,09,23,13,48,15.10
2007,09,23,13,49,15.00
2007,09,23,13,50,15.00
2007,09,23,13,51,15.00
2007,09,23,13,52,15.00
2007,09,23,13,53,15.00
2007,09,23,13,54,15.00
2007,09,23,13,55,15.00
2007,09,23,13,56,15.00
2007,09,23,13,57,15.00
2007,09,23,13,58,15.00
2007,09,23,13,59,15.10
2007,09,23,14,00,15.20
2007,09,23,14,01,15.20
2007,09,23,14,02,15.20
2007,09,23,14,03,15.30
2007,09,23,14,04,15.40
2007,09,23,14,05,15.50
2007,09,23,14,06,15.60
2007,09,23,14,07,15.60
2007,09,23,14,08,15.60
2007,09,23,14,09,15.60
2007,09,23,14,10,15.50
2007,09,23,14,11,15.50
2007,09,23,14,12,15.50
2007,09,23,14,13,15.50
2007,09,23,14,14,15.40
2007,09,23,14,15,15.40
2007,09,23,14,16,15.40
2007,09,23,14,17,15.50
2007,09,23,14,18,15.60
2007,09,23,14,19,15.70
2007,09,23,14,20,15.70
2007,09,23,14,21,15.70
2007,09,23,14,22,15.70
2007,09,23,14,23,15.70
2007,09,23,14,24,15.70
2007,09,23,14,25,15.70
2007,09,23,14,26,15.70
2007,09,23,14,27,15.80
2007,09,23,14,28,15.70
2007,09,23,14,29,15.70
2007,09,23,14,30,15.70
2007,09,23,14,31,15.60
2007,09,23,14,32,15.60
2007,09,23,14,33,15.70
2007,09,23,14,34,15.70
2007,09,23,14,35,15.70
2007,09,23,14,36,15.70
2007,09,23,14,37,15.70
2007,09,23,14,38,15.60
2007,09,23,14,39,15.70
2007,09,23,14,40,15.70
2007,09,23,14,41,15.70
2007,09,23,14,42,15.60
2007,09,23,14,43,15.50
2007,09,23,14,44,15.40
2007,09,23,14,45,15.30
2007,09,23,14,46,15.30
2007,09,23,14,47,15.20
2007,09,23,14,48,15.20
2007,09,23,14,49,15.20
2007,09,23,14,50,15.20
2007,09,23,14,51,15.20
2007,09,23,14,52,15.30
2007,09,23,14,53,15.30
2007,09,23,14,54,15.30
2007,09,23,14,55,15.30
2007,09,23,14,56,15.20
2007,09,23,14,57,15.10
2007,09,23,14,58,15.00
2007,09,23,14,59,15.00
2007,09,23,15,00,15.00
2007,09,23,15,01,15.00
2007,09,23,15,02,15.00
2007,09,23,15,03,15.00
2007,09,23,15,04,15.00
2007,09,23,15,05,15.00
2007,09,23,15,06,15.00
2007,09,23,15,07,15.00
2007,09,23,15,08,15.00
2007,09,23,15,09,15.10
2007,09,23,15,10,15.20
2007,09,23,15,11,15.20
2007,09,23,15,12,15.30
2007,09,23,15,13,15.30
2007,09,23,15,14,15.40
2007,09,23,15,15,15.40
2007,09,23,15,16,15.40
2007,09,23,15,17,15.30
2007,09,23,15,18,15.10
2007,09,23,15,19,15.00
2007,09,23,15,20,15.00
2007,09,23,15,21,15.00
2007,09,23,15,22,15.00
2007,09,23,15,23,15.10
2007,09,23,15,24,15.10
2007,09,23,15,25,15.20
2007,09,23,15,26,15.20
2007,09,23,15,27,15.20
2007,09,23,15,28,15.10
2007,09,23,15,29,15.10
2007,09,23,15,30,15.10
2007,09,23,15,31,15.20
2007,09,23,15,32,15.20
2007,09,23,15,33,15.20
2007,09,23,15,34,15.30
2007,09,23,15,35,15.40
2007,09,23,15,36,15.40
2007,09,23,15,37,15.50
2007,09,23,15,38,15.50
2007,09,23,15,39,15.50
2007,09,23,15,40,15.50
2007,09,23,15,41,15.60
2007,09,23,15,42,15.70
2007,09,23,15,43,15.60
2007,09,23,15,44,15.60
2007,09,23,15,45,15.60
2007,09,23,15,46,15.60
2007,09,23,15,47,15.50
2007,09,23,15,48,15.40
2007,09,23,15,49,15.30
2007,09,23,15,50,15.20
2007,09,23,15,51,15.20
2007,09,23,15,52,15.10
2007,09,23,15,53,15.00
2007,09,23,15,54,15.00
2007,09,23,15,55,15.00
2007,09,23,15,56,15.00
2007,09,23,15,57,15.00
2007,09,23,15,58,15.00
2007,09,23,15,59,15.00
2007,09,23,16,00,15.00
2007,09,23,16,01,15.00
2007,09,23,16,02,15.00
2007,09,23,16,03,15.00
2007,09,23,16,04,15.00
2007,09,23,16,05,15.00
2007,09,23,16,06,15.00
2007,09,23,16,07,15.00
2007,09,23,16,08,15.00
2007,09,23,16,09,15.00
2007,09,23,16,10,15.00
2007,09,23,16,11,15.00
2007,09,23,16,12,15.00
2007,09,23,16,13,15.00
2007,09,23,16,14,15.00
2007,09,23,16,15,15.00
2007,09,23,16,16,15.10
2007,09,23,16,17,15.10
2007,09,23,16,18,15.10
2007,09,23,16,19,15.20
2007,09,23,16,20,15.20
2007,09,23,16,21,15.20
2007,09,23,16,22,15.10
2007,09,23,16,23,15.10
2007,09,23,16,24,15.10
2007,09,23,16,25,15.10
2007,09,23,16,26,15.10
2007,09,23,16,27,15.20
2007,09,23,16,28,15.20
2007,09,23,16,29,15.20
2007,09,23,16,30,15.10
2007,09,23,16,31,15.20
2007,09,23,16,32,15.30
2007,09,23,16,33,15.30
2007,09,23,16,34,15.30
2007,09,23,16,35,15.30
2007,09,23,16,36,15.30
2007,09,23,16,37,15.30
2007,09,23,16,38,15.20
2007,09,23,16,39,15.20
2007,09,23,16,40,15.30
2007,09,23,16,41,15.40
2007,09,23,16,42,15.40
2007,09,23,16,43,15.40
2007,09,23,16,44,15.60
2007,09,23,16,45,15.70
2007,09,23,16,46,15.70
2007,09,23,16,47,15.70
2007,09,23,16,48,15.80
2007,09,23,16,49,15.80
2007,09,23,16,50,15.90
2007,09,23,16,51,16.00
2007,09,23,16,52,16.10
2007,09,23,16,53,16.00
2007,09,23,16,54,15.90
2007,09,23,16,55,15.80
2007,09,23,16,56,15.80
2007,09,23,16,57,15.80
2007,09,23,16,58,15.90
2007,09,23,16,59,15.90
2007,09,23,17,00,15.90
2007,09,23,17,01,15.90
2007,09,23,17,02,15.90
2007,09,23,17,03,15.90
2007,09,23,17,04,15.90
2007,09,23,17,05,15.90
2007,09,23,17,06,15.90
2007,09,23,17,07,15.90
2007,09,23,17,08,15.90
2007,09,23,17,09,16.00
2007,09,23,17,10,16.10
2007,09,23,17,11,16.10
2007,09,23,17,12,16.00
2007,09,23,17,13,16.00
2007,09,23,17,14,15.90
2007,09,23,17,15,15.80
2007,09,23,17,16,15.70
2007,09,23,17,17,15.70
2007,09,23,17,18,15.70
2007,09,23,17,19,15.70
2007,09,23,17,20,15.70
2007,09,23,17,21,15.70
2007,09,23,17,22,15.70
2007,09,23,17,23,15.50
2007,09,23,17,24,15.40
2007,09,23,17,25,15.30
2007,09,23,17,26,15.30
2007,09,23,17,27,15.30
2007,09,23,17,28,15.30
2007,09,23,17,29,15.30
2007,09,23,17,30,15.30
2007,09,23,17,31,15.30
2007,09,23,17,32,15.30
2007,09,23,17,33,15.30
2007,09,23,17,34,15.20
2007,09,23,17,35,15.20
2007,09,23,17,36,15.30
2007,09,23,17,37,15.30
2007,09,23,17,38,15.40
2007,09,23,17,39,15.40
2007,09,23,17,40,15.40
2007,09,23,17,41,15.50
2007,09,23,17,42,15.40
2007,09,23,17,43,15.40